Location: Roland
(31.1349°N, 85.4372°W)
Time: 22:49:39
(UTC+00:00)

Tiros 1 - Pass Details

Date: 27 April 2021
Orbit: 630 x 664 km, 48.4° (Epoch: 06 May)

Event Time Altitude Azimuth Distance (km) Brightness Sun altitude
Rises 15:57:02 0° 320° (NW) 2,932 10.2 61.0°
Reaches altitude 10° 16:01:25 10° 359° (N) 2,014 9.7 61.8°
Maximum altitude 16:02:29 11° 12° (NNE) 1,967 9.7 62.0°
Drops below altitude 10° 16:03:33 10° 26° (NNE) 2,011 9.8 62.2°
Sets 16:07:55 0° 65° (ENE) 2,913 10.7 63.0°
